Tracking 19242 objects as of 16-Aug-2018
HD Live streaming from Space Station
objects crossing your sky now

NOAA 16 DEB

Track NOAA 16 DEB now!
10-day predictions


NORAD ID: 42392
Int'l Code: 2000-055SL
Perigee: 817.6 km
Apogee: 854.6 km
Inclination: 99.0 °
Period: 101.5 minutes
Semi major axis: 7207 km
RCS: Unknown
Launch date: September 21, 2000
Source: United States (US)
Launch site: AIR FORCE WESTERN TEST RANGE (AFWTR)

Note: This is SATELLITE DEBRIS
aabbcc
Your satellite tracking list
Your tracking list is empty




NASA's NSSDC Master Catalog

Two Line Element Set (TLE):
1 42392U 00055SL  18227.48271028  .00000977  00000-0  48906-3 0  9995
2 42392  98.9524 317.4680 0025653 158.1800 202.0474 14.18923451125333
Source of the keplerian elements: AFSPC